Back to catalog

FENGYUN 1C DEB

AlivePO
NORAD 29966·DEBRIS·🇨🇳 China

Launched May 10, 1999 from Taiyuan Satellite Launch Center

Loading…

Next Passes (next 24 hours)

TLE

FreshSource: Space-Track

Epoch: Sep 14, 2026, 22:14 UTC

1 29966U 99025KQ  26257.92665796  .00000456  00000-0  21007-3 0  9997
2 29966  99.4594 132.2878 0038425 280.7960  78.8893 14.26166317 19795

Track FENGYUN 1C DEB in real time with AllMySat

Download on the App Store